Current Version              Previous Version:    01  02  03  04  05  06  07  08  09  10  11  12  13  14  15  16  17  18  19  20  21  22  23  24  25  26  27  28  29  30  
   31  32  33  34  35  36  37  38  39  40  41  42  43  44  45  46  47  48  49  50  51  52  53  54  55  56  57  58  59  60  

[Printable]
620
ASUS44 KFWD 291110
RWRTX
NORTH TEXAS HOURLY WEATHER ROUNDUP
NATIONAL WEATHER SERVICE FORT WORTH TX
500 AM CST THU JAN 29 2015

NOTE: "FAIR" INDICATES FEW OR NO CLOUDS BELOW 12,000 FEET WITH NO
SIGNIFICANT WEATHER AND/OR OBSTRUCTIONS TO VISIBILITY.

TXZ118-119-291200-
DALLAS/FORT WORTH METROPLEX

CITY           SKY/WX    TMP DP  RH WIND       PRES   REMARKS
DFW AIRPORT    MOCLDY    55  40  56 SW6       30.09R
DALLAS LOVE    PTCLDY    59  41  51 CALM      30.09R
FTW MEACHAM    CLEAR     60  40  47 CALM      30.09R
DAL-EXECUTIVE  CLEAR     61  40  45 SW3       30.08R
FTW-ALLIANCE   PTCLDY    50  39  66 CALM      30.09R
FTW-SPINKS     CLEAR     55  40  57 CALM      30.10R
ARLINGTON      CLEAR     57  40  52 W5        30.10R
GRAND PRAIRIE  CLEAR     56  44  63 SW6       30.10R
LANCASTER      CLEAR     52  42  69 S5        30.10R
$$

TXZ091>094-102>105-117-120-121-131>134-291200-
NORTH CENTRAL TEXAS

CITY           SKY/WX    TMP DP  RH WIND       PRES   REMARKS
SHRMAN/DENISON CLEAR     50  43  77 W5        30.11R
GAINESVILLE    CLEAR     52  39  62 N8        30.13R
BOWIE          CLEAR     49  39  68 NW8       30.12R
BRIDGEPORT     CLEAR     51  41  67 W5        30.14R
DECATUR        CLEAR     58  37  44 N6        30.12R
DENTON         PTCLDY    50  40  68 NW5       30.10R
MCKINNEY       CLEAR     48  40  73 N3        30.09R
GREENVILLE     CLEAR     55  45  67 SW7       30.09R
ROCKWALL       CLEAR     54  44  71 SW6       30.08R
TERRELL        PTCLDY    57  46  66 S8        30.10R
WAXAHACHIE     CLEAR     55  45  68 S8        30.11R
CLEBURNE       FAIR      52  41  66 S8        30.11S
GRANBURY       PTCLDY    54  41  61 CALM      30.12R
$$

TXZ083>090-098>101-113>116-127>130-139>142-154-155-291200-
WESTERN NORTH TEXAS

CITY           SKY/WX    TMP DP  RH WIND       PRES   REMARKS
WICHITA FALLS  CLEAR     47  37  68 N12       30.14R
WF-KICKAPOO    CLEAR     46  29  51 N13       30.15R
VERNON         CLEAR     51  30  44 N9        30.18R
ABILENE        CLEAR     50  42  74 S8        30.13F
ABILENE-DYESS  CLEAR     50  43  76 SW5       30.13S
BRECKENRIDGE   CLEAR     53  43  67 N6        30.13R
GRAHAM         CLEAR     49  44  83 NW5       30.13R
MINERAL WELLS  PTCLDY    48  39  71 N6        30.10R
STEPHENVILLE   CLEAR     52  39  62 CALM      30.13S
COMANCHE       CLEAR     56  41  56 SW9       30.13F
BROWNWOOD      PTCLDY    45  41  87 CALM      30.15S
COLEMAN        PTCLDY    51  43  72 W3        30.15S
BRADY          PTCLDY    55  39  54 VRB3      30.13R
$$

TXZ143>147-156>162-174-175-291200-
CENTRAL TEXAS

CITY           SKY/WX    TMP DP  RH WIND       PRES   REMARKS
WACO           CLEAR     45  43  93 CALM      30.12R
WACO-MCGREGOR  CLEAR     48  39  71 N6        30.14R
HILLSBORO      PTCLDY    50  44  78 S6        30.11S
CORSICANA      CLEAR     57  51  80 S12       30.13R
MEXIA          CLEAR     51  49  92 S5        30.12R
HEARNE         PTCLDY    53  53  99 SE3       30.15S FOG
CAMERON        CLOUDY    57  56  97 S6        30.14S
TEMPLE         CLEAR     52  45  76 S9        30.11S
KILLEEN        CLEAR     55  49  81 S7        30.11F
KILLEEN-SKYLRK CLEAR     50  43  76 S7        30.09S
FORT HOOD      CLEAR     52  47  84 S5        30.11S
GATESVILLE     CLEAR     48  41  76 CALM      30.15R
HAMILTON       CLEAR     55  41  58 W13       30.14R
LAMPASAS       CLEAR     53  46  78 W5        30.11F
$$

TXZ095>097-106>112-122>126-135>138-148>153-164>167-291200-
EAST TEXAS

CITY           SKY/WX    TMP DP  RH WIND       PRES   REMARKS
PARIS          PTCLDY    52  41  66 SW10      30.08R
SULPHUR SPRNGS CLEAR     58  45  60 SW12      30.10R
MOUNT PLEASANT PTCLDY    60  43  52 SW10G17   30.09F
GILMER         MOCLDY    56  46  66 S9        30.09S
MINEOLA        MOCLDY    61  45  55 SW5       30.11R
TYLER          CLEAR     57  48  72 SW10      30.11S
LONGVIEW       CLEAR     55  49  80 S8        30.10S
MARSHALL         N/A     55  51  87 S6        30.12S
ATHENS         PTCLDY    52  48  87 CALM      30.12S
PALESTINE      MOCLDY    55  54  97 S3        30.15R
JACKSONVILLE   CLOUDY    56  55  97 CALM      30.14S FOG
HENDERSON      CLEAR     53  51  94 S5        30.13S
NACOGDOCHES    CLOUDY    55  54  94 SW7       30.15S
LUFKIN         CLOUDY    62  57  83 SW9       30.15S
$$

SUPPLEMENTAL OBSERVATIONS (CENTRAL)

CITY           SKY/WX    TMP DP  RH WIND       PRES   REMARKS
CADDO GRASSLND   N/A     54  41  62 SW3         N/A
PAT MAYSE LAKE   N/A     54  43  66 S6          N/A
PALESTINE        N/A     55  52  88 SW3G15      N/A
MCGREGOR         N/A     48  45  87 SW3         N/A
TEMPLE           N/A     52  48  87 S8          N/A
$$

SUPPLEMENTAL OBSERVATIONS (WEST)

CITY           SKY/WX    TMP DP  RH WIND       PRES   REMARKS
MILLERS CREEK    N/A     45  36  70 NW8         N/A
POSSUM KINGDOM   N/A     52  41  66 NW5         N/A
LBJ GRASSLAND    N/A     52  39  62 CALM        N/A
GRANBURY         N/A     54  39  58 W3G17       N/A
HAMBY            N/A     52  41  66 N9          N/A
IVIE RESERVOIR   N/A     55  39  54 VRB7        N/A
COLORADO BEND    N/A     50  41  71 CALM        N/A
$$

SUPPLEMENTAL OBSERVATIONS (EAST)

CITY           SKY/WX    TMP DP  RH WIND       PRES   REMARKS
CLARKSVILLE      N/A     55  45  67 W5          N/A
TEXARKANA        N/A     54  46  76 SE1         N/A
LINDEN           N/A     54  45  71 SW3         N/A
GILMER           N/A     57  45  62 SW9         N/A
HENDERSON        N/A     54  48  82 S8          N/A
LUFKIN           N/A     57  55  94 MISG        N/A
S SABINE NF      N/A     55  52  88 S1          N/A
$$

SUPPLEMENTAL OBSERVATIONS ARE A COLLECTION OF AUTOMATED INSTRUMENTS
THAT ARE MAINTAINED BY A VARIETY OF FEDERAL AND STATE AGENCIES.
CERTAIN ELEMENTS...SUCH AS HUMIDITY VALUES AND SUSTAINED WIND
SPEEDS...MAY BE APPROXIMATED.